Location: Zagreb
(45.8000°N, 16.0000°E)
Time: 03:52:48
(UTC+02:00)

Tiros 1 - Visible Passes

Search period start: 08 August 2022 00:00
Search period end: 18 August 2022 00:00
Orbit: 629 x 663 km, 48.4° (Epoch: 07 August)

Date Brightness Start Highest point End Pass type
(mag) Time Alt. Az. Time Alt. Az. Time Alt. Az.
08 Aug 8.8 01:10:01 10° WNW 01:12:07 26° WNW 01:12:07 26° WNW visible
08 Aug 9.0 03:00:22 18° SE 03:00:22 18° SE 03:01:39 10° SE visible
08 Aug 8.7 04:38:20 15° SW 04:38:26 15° SW 04:41:12 10° S visible
08 Aug 7.0 22:11:02 10° WSW 22:15:43 81° SSE 22:20:28 10° ENE visible
08 Aug 7.5 23:53:24 10° W 23:58:05 63° N 23:58:44 56° NE visible
09 Aug 9.5 01:35:45 10° WNW 01:36:21 14° WNW 01:36:21 14° WNW visible
09 Aug 7.4 20:54:56 10° SW 20:59:23 45° SSE 21:03:54 10° ENE visible
09 Aug 7.3 22:36:46 10° W 22:41:28 74° NNW 22:45:17 16° ENE visible
10 Aug 7.9 00:19:14 10° WNW 00:22:53 50° NW 00:22:53 50° NW visible
10 Aug 7.1 21:20:18 10° WSW 21:24:57 77° SSE 21:29:41 10° ENE visible
10 Aug 7.5 23:02:37 10° W 23:07:18 63° N 23:09:25 31° ENE visible
11 Aug 8.8 00:44:59 10° WNW 00:47:01 25° WNW 00:47:01 25° WNW visible
11 Aug 7.3 21:46:00 10° W 21:50:41 76° NNW 21:55:25 10° ENE visible
11 Aug 7.4 23:28:27 10° WNW 23:33:09 66° N 23:33:33 62° NE visible
12 Aug 9.7 01:10:44 10° WNW 01:11:09 12° WNW 01:11:09 12° WNW visible
12 Aug 7.5 22:11:50 10° W 22:16:30 64° N 22:20:04 17° ENE visible
12 Aug 7.9 23:54:14 10° WNW 23:57:40 48° WNW 23:57:40 48° WNW visible
13 Aug 7.3 20:55:14 10° WSW 20:59:54 78° NNW 21:04:38 10° ENE visible
13 Aug 7.4 22:37:41 10° WNW 22:42:22 64° N 22:44:12 36° ENE visible
14 Aug 9.0 00:19:57 10° WNW 00:21:48 23° WNW 00:21:48 23° WNW visible
14 Aug 7.5 21:21:04 10° W 21:25:43 64° N 21:30:25 10° ENE visible
14 Aug 7.1 23:03:27 10° WNW 23:08:11 79° NNE 23:08:20 77° NE visible
15 Aug 9.8 00:45:47 10° WNW 00:45:57 11° WNW 00:45:57 11° WNW visible
15 Aug 7.5 21:46:55 10° WNW 21:51:35 64° N 21:54:53 19° E visible
15 Aug 7.9 23:29:11 10° WNW 23:32:30 45° W 23:32:30 45° W visible
16 Aug 7.5 20:30:17 10° W 20:34:56 65° N 20:39:37 10° ENE visible
16 Aug 7.2 22:12:42 10° WNW 22:17:23 76° NNE 22:19:04 40° E visible
16 Aug 9.1 23:55:00 10° WNW 23:56:41 21° W 23:56:41 21° W visible
17 Aug 7.5 20:56:08 10° W 21:00:47 63° N 21:05:27 10° E visible
17 Aug 7.0 22:38:25 10° WNW 22:43:07 77° SSW 22:43:16 75° S visible
